Easton, MD

3:46 AM EDT on October 24, 2017 (GMT -0400)
Easton / Newnam

Weather History for KESN - September, 2013

Change the Weather History Date:

Sunday, September 22, 2013

  Actual Average Record
Temperature  
Mean Temperature 66 °F -  
Max Temperature 73 °F 78 °F 95 °F (1970)
Min Temperature 57 °F 55 °F 40 °F (1962)
Growing Degree Days 16 (Base 50)    
Moisture  
Dew Point 60 °F    
Average Humidity 86    
Maximum Humidity 100    
Minimum Humidity 44    
Precipitation  
Precipitation 0.08 in - - ()
Sea Level Pressure  
Sea Level Pressure 29.83 in    
Wind  
Wind Speed 5 mph (NNW)    
Max Wind Speed 13 mph    
Max Gust Speed 21 mph    
Visibility 10 miles    
Events Rain    
Averages and records for this station are not official NWS values.
T = Trace of Precipitation, MM = Missing Value Source: NWS Daily Summary

Daily Weather History Graph

Daily Weather History Graph

Search for Another Location

Airport or City:

Trip Planner

Search our weather history database for the weather conditions in past years. The results will help you decide how hot, cold, wet, or windy it might be!

Date:

Astronomy

Sep. 22, 2013 Rise Set
Actual Time 6:52 AM EDT 7:00 PM EDT
Civil Twilight 6:25 AM EDT 7:27 PM EDT
Nautical Twilight 5:54 AM EDT 7:58 PM EDT
Astronomical Twilight 5:22 AM EDT 8:29 PM EDT
Moon 8:51 PM EDT (9/22) 10:07 AM EDT (9/22)
Length of Visible Light 13h 01m
Length of Day
12h 08m
Waning Gibbous, 89% of the Moon is Illuminated
Sep 22
Waning Gibbous
Sep 26
Last Quarter
Oct 4
New
Oct 11
First Quarter
Oct 18
Full

Hourly Weather History & Observations

Time (EDT) Temp. Dew Point Humidity Pressure Visibility Wind Dir Wind Speed Gust Speed Precip Events Conditions
12:19 AM 67.5 °F 67.5 °F 100% 29.75 in 10.0 mi WNW 12.7 mph 17.3 mph 0.04 in Rain Rain
12:39 AM 66.4 °F 66.4 °F 100% 29.75 in 7.0 mi NW 5.8 mph - 0.08 in Rain Light Rain
12:59 AM 65.8 °F 65.8 °F 100% 29.75 in 10.0 mi NW 5.8 mph - 0.08 in Rain Light Rain
1:19 AM 66.0 °F 66.0 °F 100% 29.75 in 10.0 mi NNW 9.2 mph - N/A   Overcast
1:39 AM 66.2 °F 66.2 °F 100% 29.75 in 10.0 mi NNW 8.1 mph - N/A   Overcast
1:59 AM 65.8 °F 65.8 °F 100% 29.75 in 10.0 mi NNW 5.8 mph - N/A   Overcast
2:19 AM 65.7 °F 65.7 °F 100% 29.77 in 10.0 mi Calm Calm - N/A   Overcast
2:39 AM 65.5 °F 65.5 °F 100% 29.76 in 10.0 mi Calm Calm - N/A   Overcast
2:59 AM 65.7 °F 65.7 °F 100% 29.76 in 10.0 mi Calm Calm - N/A   Overcast
3:19 AM 65.5 °F 65.5 °F 100% 29.76 in 10.0 mi Calm Calm - N/A   Overcast
3:39 AM 65.7 °F 65.7 °F 100% 29.77 in 10.0 mi Calm Calm - N/A   Overcast
3:59 AM 65.5 °F 65.5 °F 100% 29.77 in 10.0 mi Calm Calm - N/A   Overcast
4:19 AM 65.3 °F 65.3 °F 100% 29.77 in 10.0 mi Calm Calm - N/A   Mostly Cloudy
4:39 AM 64.4 °F 64.4 °F 100% 29.77 in 10.0 mi Calm Calm - N/A   Scattered Clouds
4:59 AM 64.2 °F 64.2 °F 100% 29.78 in 10.0 mi Calm Calm - N/A   Scattered Clouds
5:19 AM 64.0 °F 64.0 °F 100% 29.79 in 10.0 mi NNW 4.6 mph - N/A   Mostly Cloudy
5:39 AM 64.4 °F 64.4 °F 100% 29.79 in 10.0 mi North 4.6 mph - N/A   Overcast
5:50 AM 64.4 °F 64.4 °F 100% 29.80 in 4.0 mi Calm Calm - N/A   Mostly Cloudy
5:59 AM 64.0 °F 64.0 °F 100% 29.80 in 10.0 mi Calm Calm - N/A   Mostly Cloudy
6:19 AM 63.0 °F 63.0 °F 100% 29.80 in 10.0 mi Calm Calm - N/A   Scattered Clouds
6:39 AM 62.8 °F 62.8 °F 100% 29.81 in 10.0 mi North 3.5 mph - N/A   Clear
6:46 AM 62.8 °F 62.8 °F 100% 29.81 in 10.0 mi North 3.5 mph - N/A   Clear
6:50 AM 62.6 °F 62.6 °F 100% 29.81 in 10.0 mi NNW 3.5 mph - N/A   Scattered Clouds
7:50 AM 62.6 °F 62.6 °F 100% 29.83 in 10.0 mi Calm Calm - N/A   Scattered Clouds
8:50 AM 66.2 °F 64.4 °F 94% 29.85 in 10.0 mi North 6.9 mph - N/A   Scattered Clouds
9:45 AM 68.0 °F 62.6 °F 83% 29.85 in 10.0 mi North 8.1 mph - N/A   Scattered Clouds
10:50 AM 68.0 °F 60.8 °F 78% 29.87 in 10.0 mi North 8.1 mph - N/A   Mostly Cloudy
11:50 AM 71.6 °F 55.4 °F 57% 29.86 in 10.0 mi NNE 8.1 mph 20.7 mph N/A   Scattered Clouds
12:50 PM 73.4 °F 55.4 °F 53% 29.86 in 10.0 mi NNE 10.4 mph 16.1 mph N/A   Scattered Clouds
1:45 PM 71.6 °F 50.0 °F 46% 29.86 in 10.0 mi NNW 12.7 mph 16.1 mph N/A   Scattered Clouds
2:53 PM 73.4 °F 50.0 °F 44% 29.85 in 10.0 mi NNW 11.5 mph 17.3 mph N/A   Scattered Clouds
3:55 PM 73.4 °F 51.8 °F 47% 29.85 in 10.0 mi NNW 12.7 mph 19.6 mph N/A   Scattered Clouds
4:53 PM 73.4 °F 51.8 °F 47% 29.85 in 10.0 mi North 11.5 mph 17.3 mph N/A   Scattered Clouds
5:53 PM 71.6 °F 53.6 °F 53% 29.87 in 10.0 mi NNW 4.6 mph - N/A   Mostly Cloudy
6:53 PM 66.2 °F 53.6 °F 64% 29.88 in 10.0 mi Calm Calm - N/A   Scattered Clouds
7:53 PM 62.6 °F 55.4 °F 77% 29.90 in 10.0 mi Calm Calm - N/A   Mostly Cloudy
8:53 PM 62.6 °F 53.6 °F 72% 29.93 in 10.0 mi Calm Calm - N/A   Clear
10:01 PM 60.4 °F 52.2 °F 74% 29.94 in 10.0 mi Calm Calm - N/A   Clear
10:21 PM 59.0 °F 52.0 °F 78% 29.95 in 10.0 mi Calm Calm - N/A   Clear
10:41 PM 59.9 °F 51.8 °F 75% 29.95 in 10.0 mi Calm Calm - N/A   Clear
11:01 PM 58.5 °F 51.4 °F 77% 29.96 in 10.0 mi Calm Calm - N/A   Clear
11:21 PM 58.3 °F 51.4 °F 78% 29.96 in 10.0 mi Calm Calm - N/A   Clear
11:41 PM 57.2 °F 51.8 °F 82% 29.96 in 10.0 mi North 5.8 mph - N/A   Clear